📊 Raw Sensor Data

Showing records 37326 to 37350 of 84,911 total

ID Distance (ft) Battery V Battery A Int Temp (°F) Int Humid (%) Ext Temp (°F) Solar V RSSI SNR Time Stamp
47598 15.4 3.93 5 100 42 92 5.10 -71 8 07/28/2025 02:45 PM
47597 15.4 3.93 0 99 42 91 5.10 -70 8 07/28/2025 02:30 PM
47596 15.4 3.93 0 98 42 90 5.10 -70 8 07/28/2025 02:15 PM
47595 15.5 3.93 0 97 42 89 5.10 -71 8 07/28/2025 02:00 PM
47594 15.5 3.94 6 96 41 88 5.10 -71 7 07/28/2025 01:45 PM
47593 15.5 3.99 6 94 42 88 5.10 -71 8 07/28/2025 01:30 PM
47592 15.4 3.93 0 92 42 87 5.10 -69 8 07/28/2025 01:15 PM
47591 15.5 3.93 6 91 42 84 5.10 -71 7 07/28/2025 01:00 PM
47590 15.5 3.95 6 89 43 83 5.10 -71 7 07/28/2025 12:45 PM
47589 15.5 3.93 6 88 43 82 5.10 -70 7 07/28/2025 12:30 PM
47588 15.4 3.93 6 86 43 81 5.10 -69 8 07/28/2025 12:15 PM
47587 15.5 3.93 0 85 43 84 5.10 -73 8 07/28/2025 12:00 PM
47586 15.5 3.93 0 83 43 83 5.10 -70 8 07/28/2025 11:45 AM
47585 15.5 4.04 6 81 43 79 5.10 -69 8 07/28/2025 11:30 AM
47584 15.5 3.93 0 81 43 81 5.10 -71 8 07/28/2025 11:15 AM
47583 15.5 4.01 6 80 42 77 5.10 -69 8 07/28/2025 11:00 AM
47582 15.5 3.93 6 78 43 77 5.10 -71 8 07/28/2025 10:45 AM
47581 15.5 3.93 6 78 42 76 5.10 -72 8 07/28/2025 10:30 AM
47580 15.5 3.93 6 76 43 80 5.10 -71 8 07/28/2025 10:15 AM
47579 15.5 3.93 0 74 43 74 5.10 -71 8 07/28/2025 10:00 AM
47578 15.5 3.93 6 74 43 74 5.10 -71 7 07/28/2025 09:45 AM
47577 15.5 4.09 6 73 43 71 5.10 -70 8 07/28/2025 09:30 AM
47576 15.5 3.96 6 71 44 72 5.10 -70 8 07/28/2025 09:15 AM
47575 15.5 3.93 6 70 44 69 5.10 -70 8 07/28/2025 09:00 AM
47574 15.5 3.93 6 69 44 71 5.10 -69 8 07/28/2025 08:45 AM